Wetterdaten: Montag, 21.08.2006
Datum Zeit Temp. I. Temp. A. Feuchte A. Luftdruck Regen Wind
21.08.2006 00:01 23,4 C 15,8 C 80 % 1016 hPa 0,0 l/m 6,4 km/h (2 Bft)
21.08.2006 00:04 23,4 C 15,8 C 80 % 1016 hPa 0,0 l/m 1,6 km/h (1 Bft)
21.08.2006 00:07 23,4 C 15,8 C 80 % 1016 hPa 0,0 l/m 7,2 km/h (2 Bft)
21.08.2006 00:10 23,4 C 15,8 C 80 % 1016 hPa 0,0 l/m 5,1 km/h (1 Bft)
21.08.2006 00:13 23,3 C 15,7 C 81 % 1016 hPa 0,0 l/m 5,4 km/h (1 Bft)
21.08.2006 00:16 23,4 C 15,7 C 81 % 1016 hPa 0,0 l/m 5,3 km/h (1 Bft)
21.08.2006 00:19 23,4 C 15,7 C 81 % 1016 hPa 0,0 l/m 5,4 km/h (1 Bft)
21.08.2006 00:22 23,3 C 15,6 C 81 % 1016 hPa 0,0 l/m 4,6 km/h (1 Bft)
21.08.2006 00:25 23,3 C 15,6 C 81 % 1016 hPa 0,0 l/m 0,6 km/h (0 Bft)
21.08.2006 00:28 23,3 C 15,6 C 82 % 1016 hPa 0,0 l/m 0,1 km/h (0 Bft)
21.08.2006 00:31 23,3 C 15,6 C 82 % 1016 hPa 0,0 l/m 0,0 km/h (0 Bft)
21.08.2006 00:34 23,3 C 15,6 C 82 % 1016 hPa 0,0 l/m 0,0 km/h (0 Bft)
21.08.2006 00:37 23,3 C 15,6 C 82 % 1016 hPa 0,0 l/m 0,0 km/h (0 Bft)
21.08.2006 00:40 23,3 C 15,5 C 82 % 1016 hPa 0,0 l/m 0,0 km/h (0 Bft)
21.08.2006 00:43 23,3 C 15,5 C 82 % 1016 hPa 0,0 l/m 0,0 km/h (0 Bft)
21.08.2006 00:46 23,3 C 15,4 C 83 % 1016 hPa 0,0 l/m 0,0 km/h (0 Bft)
21.08.2006 00:49 23,3 C 15,2 C 84 % 1016 hPa 0,0 l/m 1,0 km/h (0 Bft)
21.08.2006 00:52 23,3 C 15,0 C 84 % 1016 hPa 0,0 l/m 1,8 km/h (1 Bft)
21.08.2006 00:55 23,3 C 15,0 C 84 % 1016 hPa 0,0 l/m 4,7 km/h (1 Bft)
21.08.2006 00:58 23,3 C 15,0 C 84 % 1016 hPa 0,0 l/m 5,0 km/h (1 Bft)
21.08.2006 01:01 23,3 C 15,0 C 83 % 1016 hPa 0,0 l/m 2,2 km/h (1 Bft)
21.08.2006 01:04 23,3 C 15,0 C 84 % 1016 hPa 0,0 l/m 0,3 km/h (0 Bft)
21.08.2006 01:07 23,3 C 15,0 C 83 % 1016 hPa 0,0 l/m 5,4 km/h (1 Bft)
21.08.2006 01:10 23,3 C 15,0 C 83 % 1016 hPa 0,0 l/m 4,2 km/h (1 Bft)
21.08.2006 01:13 23,3 C 15,0 C 83 % 1016 hPa 0,0 l/m 1,3 km/h (1 Bft)
21.08.2006 01:16 23,3 C 15,0 C 83 % 1016 hPa 0,0 l/m 0,9 km/h (0 Bft)
21.08.2006 01:19 23,3 C 15,0 C 83 % 1016 hPa 0,0 l/m 0,9 km/h (0 Bft)
21.08.2006 01:22 23,3 C 15,0 C 83 % 1016 hPa 0,0 l/m 0,7 km/h (0 Bft)
21.08.2006 01:25 23,3 C 15,0 C 83 % 1016 hPa 0,0 l/m 0,1 km/h (0 Bft)
21.08.2006 01:28 23,3 C 15,0 C 83 % 1016 hPa 0,0 l/m 0,6 km/h (0 Bft)
21.08.2006 01:31 23,3 C 15,0 C 83 % 1016 hPa 0,0 l/m 1,1 km/h (1 Bft)
21.08.2006 01:34 23,3 C 15,0 C 83 % 1016 hPa 0,0 l/m 2,8 km/h (1 Bft)
21.08.2006 01:37 23,3 C 15,0 C 83 % 1016 hPa 0,0 l/m 0,4 km/h (0 Bft)
21.08.2006 01:40 23,3 C 14,8 C 84 % 1016 hPa 0,0 l/m 0,3 km/h (0 Bft)
21.08.2006 01:43 23,3 C 14,8 C 84 % 1016 hPa 0,0 l/m 0,5 km/h (0 Bft)
21.08.2006 01:46 23,2 C 14,6 C 84 % 1016 hPa 0,0 l/m 0,3 km/h (0 Bft)
21.08.2006 01:49 23,2 C 14,6 C 84 % 1016 hPa 0,0 l/m 0,4 km/h (0 Bft)
21.08.2006 01:52 23,2 C 14,5 C 84 % 1016 hPa 0,0 l/m 0,0 km/h (0 Bft)
21.08.2006 01:55 23,2 C 14,4 C 84 % 1016 hPa 0,0 l/m 0,0 km/h (0 Bft)
21.08.2006 01:58 23,2 C 14,4 C 84 % 1016 hPa 0,0 l/m 0,0 km/h (0 Bft)
21.08.2006 02:01 23,2 C 14,4 C 84 % 1016 hPa 0,0 l/m 0,0 km/h (0 Bft)
21.08.2006 02:04 23,2 C 14,4 C 84 % 1017 hPa 0,0 l/m 0,0 km/h (0 Bft)
21.08.2006 02:07 23,2 C 14,4 C 85 % 1017 hPa 0,0 l/m 0,0 km/h (0 Bft)
21.08.2006 02:10 23,2 C 14,3 C 85 % 1017 hPa 0,0 l/m 0,0 km/h (0 Bft)
21.08.2006 02:13 23,2 C 14,3 C 85 % 1017 hPa 0,0 l/m 0,0 km/h (0 Bft)
21.08.2006 02:16 23,2 C 14,3 C 85 % 1016 hPa 0,0 l/m 0,0 km/h (0 Bft)
21.08.2006 02:19 23,2 C 14,3 C 85 % 1016 hPa 0,0 l/m 0,0 km/h (0 Bft)
21.08.2006 02:22 23,2 C 14,4 C 85 % 1016 hPa 0,0 l/m 0,0 km/h (0 Bft)
21.08.2006 02:25 23,2 C 14,4 C 86 % 1017 hPa 0,0 l/m 0,0 km/h (0 Bft)
21.08.2006 02:28 23,2 C 14,3 C 86 % 1017 hPa 0,0 l/m 0,0 km/h (0 Bft)
21.08.2006 02:31 23,2 C 14,3 C 86 % 1017 hPa 0,0 l/m 0,0 km/h (0 Bft)
21.08.2006 02:34 23,2 C 14,4 C 86 % 1017 hPa 0,0 l/m 0,0 km/h (0 Bft)
21.08.2006 02:37 23,2 C 14,4 C 86 % 1016 hPa 0,0 l/m 0,0 km/h (0 Bft)
21.08.2006 02:40 23,2 C 14,4 C 86 % 1016 hPa 0,0 l/m 0,0 km/h (0 Bft)
21.08.2006 02:43 23,2 C 14,4 C 86 % 1016 hPa 0,0 l/m 0,0 km/h (0 Bft)
21.08.2006 02:46 23,2 C 14,4 C 86 % 1016 hPa 0,0 l/m 0,0 km/h (0 Bft)
21.08.2006 02:49 23,2 C 14,4 C 86 % 1016 hPa 0,0 l/m 0,0 km/h (0 Bft)
21.08.2006 02:52 23,2 C 14,3 C 86 % 1016 hPa 0,0 l/m 0,0 km/h (0 Bft)
21.08.2006 02:55 23,2 C 14,3 C 86 % 1016 hPa 0,0 l/m 0,1 km/h (0 Bft)
21.08.2006 02:58 23,2 C 14,3 C 86 % 1016 hPa 0,0 l/m 3,0 km/h (1 Bft)
21.08.2006 03:01 23,2 C 14,2 C 87 % 1016 hPa 0,0 l/m 4,5 km/h (1 Bft)
21.08.2006 03:04 23,2 C 14,2 C 87 % 1016 hPa 0,0 l/m 5,7 km/h (1 Bft)
21.08.2006 03:07 23,2 C 14,3 C 87 % 1016 hPa 0,0 l/m 9,5 km/h (2 Bft)
21.08.2006 03:10 23,2 C 14,3 C 87 % 1016 hPa 0,0 l/m 7,4 km/h (2 Bft)
21.08.2006 03:13 23,2 C 14,3 C 87 % 1016 hPa 0,0 l/m 7,7 km/h (2 Bft)
21.08.2006 03:16 23,2 C 14,3 C 87 % 1016 hPa 0,0 l/m 7,6 km/h (2 Bft)
21.08.2006 03:19 23,2 C 14,3 C 87 % 1016 hPa 0,0 l/m 5,6 km/h (1 Bft)
21.08.2006 03:22 23,2 C 14,3 C 86 % 1016 hPa 0,0 l/m 1,8 km/h (1 Bft)
21.08.2006 03:25 23,2 C 14,3 C 86 % 1016 hPa 0,0 l/m 0,0 km/h (0 Bft)
21.08.2006 03:28 23,2 C 14,3 C 86 % 1016 hPa 0,0 l/m 0,0 km/h (0 Bft)
21.08.2006 03:31 23,2 C 14,3 C 87 % 1016 hPa 0,0 l/m 0,0 km/h (0 Bft)
21.08.2006 03:34 23,2 C 14,3 C 87 % 1016 hPa 0,0 l/m 0,0 km/h (0 Bft)
21.08.2006 03:37 23,2 C 14,2 C 86 % 1016 hPa 0,0 l/m 0,3 km/h (0 Bft)
21.08.2006 03:40 23,2 C 14,2 C 87 % 1016 hPa 0,0 l/m 0,0 km/h (0 Bft)
21.08.2006 03:43 23,2 C 14,2 C 87 % 1016 hPa 0,0 l/m 0,0 km/h (0 Bft)
21.08.2006 03:46 23,2 C 14,2 C 87 % 1016 hPa 0,0 l/m 0,0 km/h (0 Bft)
21.08.2006 03:49 23,2 C 14,2 C 87 % 1016 hPa 0,0 l/m 0,0 km/h (0 Bft)
21.08.2006 03:52 23,2 C 14,2 C 87 % 1016 hPa 0,0 l/m 0,0 km/h (0 Bft)
21.08.2006 03:55 23,2 C 14,2 C 86 % 1016 hPa 0,0 l/m 0,0 km/h (0 Bft)
21.08.2006 03:58 23,2 C 14,1 C 87 % 1016 hPa 0,0 l/m 0,0 km/h (0 Bft)
21.08.2006 04:01 23,2 C 14,0 C 87 % 1016 hPa 0,0 l/m 0,0 km/h (0 Bft)
21.08.2006 04:04 23,2 C 13,8 C 87 % 1016 hPa 0,0 l/m 0,0 km/h (0 Bft)
21.08.2006 04:07 23,2 C 13,8 C 87 % 1016 hPa 0,0 l/m 0,0 km/h (0 Bft)
21.08.2006 04:10 23,2 C 13,7 C 87 % 1016 hPa 0,0 l/m 0,0 km/h (0 Bft)
21.08.2006 04:13 23,2 C 13,6 C 87 % 1016 hPa 0,0 l/m 0,0 km/h (0 Bft)
21.08.2006 04:16 23,2 C 13,6 C 87 % 1016 hPa 0,0 l/m 0,0 km/h (0 Bft)
21.08.2006 04:19 23,2 C 13,6 C 88 % 1016 hPa 0,0 l/m 0,0 km/h (0 Bft)
21.08.2006 04:22 23,2 C 13,6 C 88 % 1016 hPa 0,0 l/m 1,1 km/h (1 Bft)
21.08.2006 04:25 23,2 C 13,8 C 88 % 1016 hPa 0,0 l/m 1,2 km/h (1 Bft)
21.08.2006 04:28 23,1 C 13,9 C 87 % 1016 hPa 0,0 l/m 1,5 km/h (1 Bft)
21.08.2006 04:31 23,1 C 14,0 C 87 % 1016 hPa 0,0 l/m 3,0 km/h (1 Bft)
21.08.2006 04:34 23,1 C 14,0 C 87 % 1016 hPa 0,0 l/m 2,0 km/h (1 Bft)
21.08.2006 04:37 23,1 C 14,1 C 87 % 1016 hPa 0,0 l/m 2,0 km/h (1 Bft)
21.08.2006 04:40 23,1 C 14,1 C 87 % 1016 hPa 0,0 l/m 2,8 km/h (1 Bft)
21.08.2006 04:43 23,1 C 14,1 C 86 % 1016 hPa 0,0 l/m 2,8 km/h (1 Bft)
21.08.2006 04:46 23,1 C 14,1 C 86 % 1016 hPa 0,0 l/m 5,2 km/h (1 Bft)
21.08.2006 04:49 23,1 C 14,1 C 86 % 1016 hPa 0,0 l/m 2,8 km/h (1 Bft)
21.08.2006 04:52 23,1 C 14,2 C 86 % 1016 hPa 0,0 l/m 0,5 km/h (0 Bft)
21.08.2006 04:55 23,1 C 14,2 C 86 % 1016 hPa 0,0 l/m 0,1 km/h (0 Bft)
21.08.2006 04:58 23,1 C 14,2 C 86 % 1016 hPa 0,0 l/m 0,0 km/h (0 Bft)
21.08.2006 05:01 23,1 C 14,1 C 86 % 1016 hPa 0,0 l/m 0,0 km/h (0 Bft)
21.08.2006 05:04 23,1 C 14,0 C 86 % 1016 hPa 0,0 l/m 0,0 km/h (0 Bft)
21.08.2006 05:07 23,1 C 13,9 C 86 % 1016 hPa 0,0 l/m 0,0 km/h (0 Bft)
21.08.2006 05:10 23,1 C 13,8 C 86 % 1016 hPa 0,0 l/m 0,0 km/h (0 Bft)
21.08.2006 05:13 23,1 C 13,6 C 86 % 1016 hPa 0,0 l/m 0,0 km/h (0 Bft)
21.08.2006 05:16 23,1 C 13,5 C 86 % 1015 hPa 0,0 l/m 0,0 km/h (0 Bft)
21.08.2006 05:19 23,1 C 13,3 C 86 % 1015 hPa 0,0 l/m 0,0 km/h (0 Bft)
21.08.2006 05:22 23,1 C 13,2 C 86 % 1015 hPa 0,0 l/m 0,0 km/h (0 Bft)
21.08.2006 05:25 23,1 C 13,1 C 86 % 1015 hPa 0,0 l/m 0,0 km/h (0 Bft)
21.08.2006 05:28 23,1 C 13,0 C 87 % 1015 hPa 0,0 l/m 0,7 km/h (0 Bft)
21.08.2006 05:31 23,1 C 13,1 C 88 % 1015 hPa 0,0 l/m 2,7 km/h (1 Bft)
21.08.2006 05:34 23,2 C 13,2 C 88 % 1015 hPa 0,0 l/m 0,7 km/h (0 Bft)
21.08.2006 05:37 23,2 C 13,2 C 87 % 1015 hPa 0,0 l/m 0,8 km/h (0 Bft)
21.08.2006 05:40 23,2 C 13,1 C 87 % 1015 hPa 0,0 l/m 0,0 km/h (0 Bft)
21.08.2006 05:43 23,2 C 13,1 C 87 % 1015 hPa 0,0 l/m 0,0 km/h (0 Bft)
21.08.2006 05:46 23,2 C 13,1 C 87 % 1015 hPa 0,0 l/m 0,0 km/h (0 Bft)
21.08.2006 05:49 23,2 C 13,1 C 87 % 1015 hPa 0,0 l/m 0,0 km/h (0 Bft)
21.08.2006 05:52 23,3 C 13,1 C 87 % 1015 hPa 0,0 l/m 0,0 km/h (0 Bft)
21.08.2006 05:55 23,4 C 13,1 C 87 % 1015 hPa 0,0 l/m 0,0 km/h (0 Bft)
21.08.2006 05:58 23,4 C 13,0 C 87 % 1015 hPa 0,0 l/m 0,0 km/h (0 Bft)
21.08.2006 06:01 23,4 C 13,0 C 87 % 1015 hPa 0,0 l/m 0,0 km/h (0 Bft)
21.08.2006 06:04 23,4 C 13,0 C 87 % 1015 hPa 0,0 l/m 0,0 km/h (0 Bft)
21.08.2006 06:07 23,4 C 13,0 C 87 % 1015 hPa 0,0 l/m 0,0 km/h (0 Bft)
21.08.2006 06:09 23,4 C 12,8 C 86 % 1015 hPa 0,0 l/m 0,0 km/h (0 Bft)
21.08.2006 06:13 23,4 C 12,7 C 87 % 1015 hPa 0,0 l/m 0,0 km/h (0 Bft)
21.08.2006 06:16 23,4 C 12,6 C 87 % 1015 hPa 0,0 l/m 0,0 km/h (0 Bft)
21.08.2006 06:19 23,4 C 12,5 C 87 % 1015 hPa 0,0 l/m 0,0 km/h (0 Bft)
21.08.2006 06:22 23,4 C 12,5 C 88 % 1016 hPa 0,0 l/m 2,9 km/h (1 Bft)
21.08.2006 06:25 23,4 C 12,5 C 89 % 1015 hPa 0,0 l/m 0,3 km/h (0 Bft)
21.08.2006 06:28 23,4 C 12,7 C 89 % 1015 hPa 0,0 l/m 0,0 km/h (0 Bft)
21.08.2006 06:31 23,4 C 12,7 C 88 % 1016 hPa 0,0 l/m 0,0 km/h (0 Bft)
21.08.2006 06:34 23,4 C 12,8 C 88 % 1015 hPa 0,0 l/m 0,0 km/h (0 Bft)
21.08.2006 06:37 23,4 C 12,8 C 88 % 1015 hPa 0,0 l/m 0,0 km/h (0 Bft)
21.08.2006 06:40 23,4 C 12,8 C 88 % 1015 hPa 0,0 l/m 0,0 km/h (0 Bft)
21.08.2006 06:43 23,4 C 12,8 C 89 % 1015 hPa 0,0 l/m 0,0 km/h (0 Bft)
21.08.2006 06:46 23,4 C 12,9 C 89 % 1015 hPa 0,0 l/m 0,0 km/h (0 Bft)
21.08.2006 06:49 23,4 C 13,0 C 89 % 1016 hPa 0,0 l/m 0,0 km/h (0 Bft)
21.08.2006 06:52 23,4 C 13,1 C 89 % 1016 hPa 0,0 l/m 0,0 km/h (0 Bft)
21.08.2006 06:55 23,4 C 13,2 C 89 % 1016 hPa 0,0 l/m 0,0 km/h (0 Bft)
21.08.2006 06:58 23,4 C 13,2 C 89 % 1016 hPa 0,0 l/m 0,0 km/h (0 Bft)
21.08.2006 07:01 23,4 C 13,3 C 89 % 1016 hPa 0,0 l/m 0,0 km/h (0 Bft)
21.08.2006 07:04 23,4 C 13,3 C 89 % 1016 hPa 0,0 l/m 0,0 km/h (0 Bft)
21.08.2006 07:07 23,4 C 13,3 C 89 % 1016 hPa 0,0 l/m 0,0 km/h (0 Bft)
21.08.2006 07:10 23,4 C 13,2 C 89 % 1016 hPa 0,0 l/m 0,0 km/h (0 Bft)
21.08.2006 07:13 23,4 C 13,2 C 89 % 1016 hPa 0,0 l/m 0,0 km/h (0 Bft)
21.08.2006 07:16 23,4 C 13,2 C 88 % 1016 hPa 0,0 l/m 0,0 km/h (0 Bft)
21.08.2006 07:19 23,4 C 13,2 C 89 % 1016 hPa 0,0 l/m 0,0 km/h (0 Bft)
21.08.2006 07:22 23,4 C 13,4 C 89 % 1016 hPa 0,0 l/m 0,0 km/h (0 Bft)
21.08.2006 07:25 23,4 C 13,6 C 89 % 1016 hPa 0,0 l/m 0,0 km/h (0 Bft)
21.08.2006 07:28 23,5 C 13,8 C 90 % 1016 hPa 0,0 l/m 0,0 km/h (0 Bft)
21.08.2006 07:31 23,5 C 13,8 C 90 % 1015 hPa 0,0 l/m 0,0 km/h (0 Bft)
21.08.2006 07:34 23,5 C 14,3 C 89 % 1015 hPa 0,0 l/m 0,0 km/h (0 Bft)
21.08.2006 07:37 23,5 C 14,4 C 89 % 1016 hPa 0,0 l/m 0,0 km/h (0 Bft)
21.08.2006 07:40 23,4 C 14,4 C 89 % 1016 hPa 0,0 l/m 0,0 km/h (0 Bft)
21.08.2006 07:43 23,5 C 14,6 C 88 % 1016 hPa 0,0 l/m 0,0 km/h (0 Bft)
21.08.2006 07:46 23,6 C 14,6 C 88 % 1016 hPa 0,0 l/m 0,0 km/h (0 Bft)
21.08.2006 07:49 23,6 C 14,7 C 87 % 1016 hPa 0,0 l/m 0,0 km/h (0 Bft)
21.08.2006 07:52 23,6 C 14,7 C 86 % 1016 hPa 0,0 l/m 0,0 km/h (0 Bft)
21.08.2006 07:55 23,6 C 14,8 C 86 % 1016 hPa 0,0 l/m 0,0 km/h (0 Bft)
21.08.2006 07:58 23,6 C 14,8 C 87 % 1016 hPa 0,0 l/m 0,6 km/h (0 Bft)
21.08.2006 08:01 23,6 C 14,8 C 87 % 1016 hPa 0,0 l/m 0,5 km/h (0 Bft)
21.08.2006 08:04 23,6 C 14,9 C 87 % 1016 hPa 0,0 l/m 0,6 km/h (0 Bft)
21.08.2006 08:07 23,6 C 14,9 C 87 % 1016 hPa 0,0 l/m 3,9 km/h (1 Bft)
21.08.2006 08:10 23,7 C 14,9 C 87 % 1016 hPa 0,0 l/m 3,9 km/h (1 Bft)
21.08.2006 08:13 23,6 C 14,9 C 86 % 1016 hPa 0,0 l/m 6,1 km/h (2 Bft)
21.08.2006 08:16 23,7 C 15,0 C 87 % 1016 hPa 0,0 l/m 4,9 km/h (1 Bft)
21.08.2006 08:19 23,6 C 15,0 C 86 % 1016 hPa 0,0 l/m 4,9 km/h (1 Bft)
21.08.2006 08:22 23,7 C 15,0 C 86 % 1016 hPa 0,0 l/m 2,6 km/h (1 Bft)
21.08.2006 08:25 23,6 C 15,0 C 86 % 1016 hPa 0,0 l/m 5,5 km/h (1 Bft)
21.08.2006 08:28 23,6 C 15,0 C 86 % 1016 hPa 0,0 l/m 8,6 km/h (2 Bft)
21.08.2006 08:31 23,5 C 15,0 C 85 % 1016 hPa 0,0 l/m 8,1 km/h (2 Bft)
21.08.2006 08:34 23,5 C 15,2 C 84 % 1016 hPa 0,0 l/m 11,1 km/h (2 Bft)
21.08.2006 08:37 23,5 C 15,1 C 84 % 1016 hPa 0,0 l/m 5,6 km/h (1 Bft)
21.08.2006 08:40 23,6 C 15,2 C 85 % 1016 hPa 0,0 l/m 1,3 km/h (1 Bft)
21.08.2006 08:43 23,6 C 15,4 C 84 % 1016 hPa 0,0 l/m 0,3 km/h (0 Bft)
21.08.2006 08:46 23,6 C 15,6 C 85 % 1016 hPa 0,0 l/m 2,5 km/h (1 Bft)
21.08.2006 08:49 23,6 C 15,8 C 84 % 1016 hPa 0,0 l/m 1,7 km/h (1 Bft)
21.08.2006 08:52 23,5 C 15,9 C 83 % 1016 hPa 0,0 l/m 9,5 km/h (2 Bft)
21.08.2006 08:55 23,6 C 16,0 C 82 % 1016 hPa 0,0 l/m 0,3 km/h (0 Bft)
21.08.2006 08:58 23,6 C 16,0 C 82 % 1016 hPa 0,0 l/m 0,1 km/h (0 Bft)
21.08.2006 09:01 23,6 C 16,1 C 82 % 1016 hPa 0,0 l/m 3,1 km/h (1 Bft)
21.08.2006 09:04 23,6 C 16,0 C 80 % 1016 hPa 0,0 l/m 8,5 km/h (2 Bft)
21.08.2006 09:07 23,6 C 16,0 C 81 % 1016 hPa 0,0 l/m 1,8 km/h (1 Bft)
21.08.2006 09:10 23,5 C 15,9 C 82 % 1016 hPa 0,0 l/m 0,2 km/h (0 Bft)
21.08.2006 09:13 23,5 C 16,0 C 82 % 1016 hPa 0,0 l/m 0,1 km/h (0 Bft)
21.08.2006 09:16 23,5 C 16,0 C 82 % 1016 hPa 0,0 l/m 0,5 km/h (0 Bft)
21.08.2006 09:19 23,5 C 16,0 C 82 % 1016 hPa 0,0 l/m 0,3 km/h (0 Bft)
21.08.2006 09:22 23,4 C 16,0 C 82 % 1016 hPa 0,0 l/m 0,3 km/h (0 Bft)
21.08.2006 09:25 23,5 C 16,3 C 82 % 1016 hPa 0,0 l/m 0,0 km/h (0 Bft)
21.08.2006 09:28 23,4 C 16,4 C 80 % 1016 hPa 0,0 l/m 0,0 km/h (0 Bft)
21.08.2006 09:31 23,4 C 16,7 C 81 % 1016 hPa 0,0 l/m 0,0 km/h (0 Bft)
21.08.2006 09:34 23,4 C 17,1 C 81 % 1016 hPa 0,0 l/m 0,0 km/h (0 Bft)
21.08.2006 09:37 23,4 C 17,2 C 79 % 1016 hPa 0,0 l/m 0,0 km/h (0 Bft)
21.08.2006 09:40 23,4 C 17,3 C 79 % 1016 hPa 0,0 l/m 3,1 km/h (1 Bft)
21.08.2006 09:43 23,4 C 17,3 C 79 % 1016 hPa 0,0 l/m 0,0 km/h (0 Bft)
21.08.2006 09:46 23,4 C 17,4 C 79 % 1016 hPa 0,0 l/m 0,1 km/h (0 Bft)
21.08.2006 09:49 23,4 C 17,4 C 78 % 1016 hPa 0,0 l/m 0,1 km/h (0 Bft)
21.08.2006 09:52 23,4 C 17,6 C 77 % 1016 hPa 0,0 l/m 0,9 km/h (0 Bft)
21.08.2006 09:55 23,4 C 17,6 C 76 % 1016 hPa 0,0 l/m 7,6 km/h (2 Bft)
21.08.2006 09:58 23,4 C 17,6 C 76 % 1016 hPa 0,0 l/m 6,6 km/h (2 Bft)
21.08.2006 10:01 23,4 C 17,6 C 76 % 1016 hPa 0,0 l/m 5,3 km/h (1 Bft)
21.08.2006 10:04 23,4 C 17,6 C 75 % 1016 hPa 0,0 l/m 5,9 km/h (2 Bft)
21.08.2006 10:07 23,4 C 17,6 C 75 % 1016 hPa 0,0 l/m 4,1 km/h (1 Bft)
21.08.2006 10:10 23,4 C 17,6 C 74 % 1016 hPa 0,0 l/m 13,9 km/h (3 Bft)
21.08.2006 10:13 23,4 C 17,6 C 74 % 1016 hPa 0,0 l/m 15,6 km/h (3 Bft)
21.08.2006 10:16 23,4 C 17,6 C 74 % 1016 hPa 0,0 l/m 11,3 km/h (2 Bft)
21.08.2006 10:19 23,4 C 17,7 C 74 % 1016 hPa 0,0 l/m 10,2 km/h (2 Bft)
21.08.2006 10:22 23,4 C 17,6 C 73 % 1016 hPa 0,0 l/m 11,6 km/h (2 Bft)
21.08.2006 10:25 23,4 C 17,7 C 74 % 1016 hPa 0,0 l/m 15,1 km/h (3 Bft)
21.08.2006 10:28 23,4 C 17,6 C 73 % 1016 hPa 0,0 l/m 12,5 km/h (3 Bft)
21.08.2006 10:31 23,4 C 17,6 C 74 % 1016 hPa 0,0 l/m 6,7 km/h (2 Bft)
21.08.2006 10:34 23,3 C 17,7 C 74 % 1016 hPa 0,0 l/m 7,9 km/h (2 Bft)
21.08.2006 10:37 23,4 C 17,8 C 74 % 1016 hPa 0,0 l/m 8,5 km/h (2 Bft)
21.08.2006 10:40 23,3 C 18,1 C 74 % 1016 hPa 0,0 l/m 8,5 km/h (2 Bft)
21.08.2006 10:43 23,3 C 18,3 C 72 % 1016 hPa 0,0 l/m 11,0 km/h (2 Bft)
21.08.2006 10:46 23,3 C 18,4 C 72 % 1016 hPa 0,0 l/m 10,4 km/h (2 Bft)
21.08.2006 10:49 23,3 C 18,4 C 72 % 1016 hPa 0,0 l/m 13,3 km/h (3 Bft)
21.08.2006 10:52 23,3 C 18,4 C 71 % 1016 hPa 0,0 l/m 10,5 km/h (2 Bft)
21.08.2006 10:55 23,3 C 18,4 C 70 % 1016 hPa 0,0 l/m 9,4 km/h (2 Bft)
21.08.2006 10:58 23,3 C 18,4 C 69 % 1016 hPa 0,0 l/m 16,1 km/h (3 Bft)
21.08.2006 11:01 23,3 C 18,4 C 69 % 1016 hPa 0,0 l/m 12,0 km/h (2 Bft)
21.08.2006 11:04 23,3 C 18,4 C 69 % 1016 hPa 0,0 l/m 13,2 km/h (3 Bft)
21.08.2006 11:07 23,4 C 18,1 C 69 % 1016 hPa 0,0 l/m 12,8 km/h (3 Bft)
21.08.2006 11:10 23,3 C 18,1 C 70 % 1015 hPa 0,0 l/m 13,8 km/h (3 Bft)
21.08.2006 11:13 23,3 C 18,0 C 71 % 1016 hPa 0,0 l/m 14,1 km/h (3 Bft)
21.08.2006 11:16 23,3 C 18,0 C 70 % 1016 hPa 0,0 l/m 13,0 km/h (3 Bft)
21.08.2006 11:19 23,3 C 18,0 C 70 % 1016 hPa 0,0 l/m 13,0 km/h (3 Bft)
21.08.2006 11:22 23,3 C 18,1 C 72 % 1016 hPa 0,0 l/m 10,6 km/h (2 Bft)
21.08.2006 11:25 23,3 C 18,3 C 71 % 1015 hPa 0,0 l/m 12,5 km/h (3 Bft)
21.08.2006 11:28 23,3 C 18,4 C 72 % 1015 hPa 0,0 l/m 8,9 km/h (2 Bft)
21.08.2006 11:31 23,3 C 18,6 C 71 % 1015 hPa 0,0 l/m 8,8 km/h (2 Bft)
21.08.2006 11:34 23,3 C 18,8 C 72 % 1015 hPa 0,0 l/m 14,3 km/h (3 Bft)
21.08.2006 11:37 23,3 C 18,9 C 70 % 1015 hPa 0,0 l/m 11,9 km/h (2 Bft)
21.08.2006 11:40 23,3 C 18,8 C 71 % 1015 hPa 0,0 l/m 11,2 km/h (2 Bft)
21.08.2006 11:43 23,3 C 18,8 C 69 % 1015 hPa 0,0 l/m 16,8 km/h (3 Bft)
21.08.2006 11:46 23,2 C 18,8 C 71 % 1015 hPa 0,0 l/m 11,0 km/h (2 Bft)
21.08.2006 11:49 23,2 C 18,7 C 71 % 1015 hPa 0,0 l/m 11,1 km/h (2 Bft)
21.08.2006 11:52 23,2 C 18,7 C 68 % 1015 hPa 0,0 l/m 15,3 km/h (3 Bft)
21.08.2006 11:55 23,2 C 18,7 C 69 % 1015 hPa 0,0 l/m 12,1 km/h (2 Bft)
21.08.2006 11:58 23,2 C 18,8 C 69 % 1015 hPa 0,0 l/m 11,3 km/h (2 Bft)
21.08.2006 12:01 23,2 C 18,8 C 68 % 1015 hPa 0,0 l/m 14,1 km/h (3 Bft)
21.08.2006 12:04 23,2 C 18,8 C 68 % 1015 hPa 0,0 l/m 13,4 km/h (3 Bft)
21.08.2006 12:07 23,3 C 18,8 C 68 % 1015 hPa 0,0 l/m 18,2 km/h (3 Bft)
21.08.2006 12:10 23,3 C 19,0 C 69 % 1015 hPa 0,0 l/m 12,8 km/h (3 Bft)
21.08.2006 12:13 23,3 C 19,2 C 69 % 1015 hPa 0,0 l/m 15,3 km/h (3 Bft)
21.08.2006 12:16 23,3 C 19,2 C 67 % 1015 hPa 0,0 l/m 11,5 km/h (2 Bft)
21.08.2006 12:19 23,3 C 19,1 C 66 % 1015 hPa 0,0 l/m 14,2 km/h (3 Bft)
21.08.2006 12:22 23,3 C 19,0 C 67 % 1015 hPa 0,0 l/m 9,8 km/h (2 Bft)
21.08.2006 12:25 23,4 C 18,8 C 67 % 1015 hPa 0,0 l/m 11,6 km/h (2 Bft)
21.08.2006 12:28 23,4 C 18,8 C 67 % 1015 hPa 0,0 l/m 10,3 km/h (2 Bft)
21.08.2006 12:31 23,4 C 18,8 C 68 % 1015 hPa 0,0 l/m 11,6 km/h (2 Bft)
21.08.2006 12:34 23,4 C 19,1 C 67 % 1015 hPa 0,0 l/m 10,4 km/h (2 Bft)
21.08.2006 12:37 23,4 C 19,3 C 68 % 1015 hPa 0,0 l/m 11,8 km/h (2 Bft)
21.08.2006 12:40 23,4 C 19,4 C 69 % 1015 hPa 0,0 l/m 13,3 km/h (3 Bft)
21.08.2006 12:43 23,4 C 19,5 C 67 % 1015 hPa 0,0 l/m 8,7 km/h (2 Bft)
21.08.2006 12:46 23,4 C 19,5 C 67 % 1015 hPa 0,0 l/m 7,3 km/h (2 Bft)
21.08.2006 12:49 23,5 C 19,5 C 65 % 1015 hPa 0,0 l/m 10,4 km/h (2 Bft)
21.08.2006 12:52 23,4 C 19,4 C 66 % 1015 hPa 0,0 l/m 12,3 km/h (3 Bft)
21.08.2006 12:55 23,4 C 19,2 C 67 % 1015 hPa 0,0 l/m 9,7 km/h (2 Bft)
21.08.2006 12:58 23,3 C 18,9 C 69 % 1015 hPa 0,0 l/m 12,8 km/h (3 Bft)
21.08.2006 13:01 23,4 C 19,0 C 68 % 1015 hPa 0,0 l/m 8,9 km/h (2 Bft)
21.08.2006 13:04 23,3 C 19,1 C 70 % 1015 hPa 0,0 l/m 12,6 km/h (3 Bft)
21.08.2006 13:07 23,3 C 19,2 C 66 % 1015 hPa 0,0 l/m 10,8 km/h (2 Bft)
21.08.2006 13:10 23,3 C 19,3 C 65 % 1015 hPa 0,0 l/m 18,1 km/h (3 Bft)
21.08.2006 13:13 23,3 C 19,5 C 66 % 1015 hPa 0,0 l/m 14,2 km/h (3 Bft)
21.08.2006 13:16 23,3 C 19,5 C 64 % 1015 hPa 0,0 l/m 14,2 km/h (3 Bft)
21.08.2006 13:19 23,3 C 19,4 C 66 % 1015 hPa 0,0 l/m 6,7 km/h (2 Bft)
21.08.2006 13:22 23,3 C 19,3 C 66 % 1015 hPa 0,0 l/m 4,2 km/h (1 Bft)
21.08.2006 13:25 23,3 C 19,1 C 66 % 1015 hPa 0,0 l/m 7,9 km/h (2 Bft)
21.08.2006 13:28 23,3 C 19,0 C 66 % 1015 hPa 0,0 l/m 10,5 km/h (2 Bft)
21.08.2006 13:31 23,3 C 19,0 C 67 % 1014 hPa 0,0 l/m 3,9 km/h (1 Bft)
21.08.2006 13:34 23,3 C 19,1 C 68 % 1014 hPa 0,0 l/m 2,7 km/h (1 Bft)
21.08.2006 13:37 23,2 C 19,1 C 68 % 1014 hPa 0,0 l/m 0,6 km/h (0 Bft)
21.08.2006 13:40 23,3 C 19,1 C 67 % 1014 hPa 0,0 l/m 12,3 km/h (3 Bft)
21.08.2006 13:43 23,2 C 18,8 C 70 % 1015 hPa 0,0 l/m 24,0 km/h (4 Bft)
21.08.2006 13:46 23,2 C 17,9 C 74 % 1015 hPa 0,3 l/m 24,1 km/h (4 Bft)
21.08.2006 13:49 23,2 C 17,9 C 74 % 1015 hPa 0,0 l/m 23,6 km/h (4 Bft)
21.08.2006 13:52 23,3 C 16,8 C 77 % 1015 hPa 0,0 l/m 23,6 km/h (4 Bft)
21.08.2006 13:55 23,3 C 16,6 C 79 % 1015 hPa 0,0 l/m 16,6 km/h (3 Bft)
21.08.2006 13:58 23,3 C 16,6 C 79 % 1015 hPa 0,0 l/m 13,8 km/h (3 Bft)
21.08.2006 14:01 23,4 C 16,5 C 79 % 1015 hPa 0,0 l/m 10,3 km/h (2 Bft)
21.08.2006 14:04 23,4 C 16,5 C 79 % 1015 hPa 0,0 l/m 10,3 km/h (2 Bft)
21.08.2006 14:07 23,4 C 16,5 C 79 % 1015 hPa 0,0 l/m 8,1 km/h (2 Bft)
21.08.2006 14:10 23,5 C 17,6 C 79 % 1014 hPa 0,0 l/m 1,5 km/h (1 Bft)
21.08.2006 14:13 23,5 C 17,9 C 78 % 1014 hPa 0,0 l/m 8,1 km/h (2 Bft)
21.08.2006 14:16 23,6 C 18,2 C 78 % 1014 hPa 0,0 l/m 1,5 km/h (1 Bft)
21.08.2006 14:19 23,6 C 18,4 C 78 % 1015 hPa 0,0 l/m 0,7 km/h (0 Bft)
21.08.2006 14:22 23,6 C 18,8 C 78 % 1015 hPa 0,0 l/m 8,9 km/h (2 Bft)
21.08.2006 14:25 23,6 C 19,2 C 76 % 1015 hPa 0,0 l/m 15,0 km/h (3 Bft)
21.08.2006 14:28 23,7 C 19,6 C 74 % 1015 hPa 0,0 l/m 11,8 km/h (2 Bft)
21.08.2006 14:31 23,7 C 19,8 C 72 % 1014 hPa 0,0 l/m 9,2 km/h (2 Bft)
21.08.2006 14:34 23,7 C 19,9 C 73 % 1014 hPa 0,0 l/m 14,8 km/h (3 Bft)
21.08.2006 14:37 23,7 C 20,1 C 72 % 1014 hPa 0,0 l/m 10,5 km/h (2 Bft)
21.08.2006 14:40 23,8 C 20,2 C 72 % 1014 hPa 0,0 l/m 9,7 km/h (2 Bft)
21.08.2006 14:43 23,8 C 20,4 C 69 % 1014 hPa 0,0 l/m 5,0 km/h (1 Bft)
21.08.2006 14:46 23,8 C 20,4 C 70 % 1014 hPa 0,0 l/m 1,6 km/h (1 Bft)
21.08.2006 14:49 23,8 C 20,5 C 70 % 1014 hPa 0,0 l/m 1,8 km/h (1 Bft)
21.08.2006 14:52 23,8 C 20,5 C 71 % 1014 hPa 0,0 l/m 1,5 km/h (1 Bft)
21.08.2006 14:55 23,8 C 20,6 C 69 % 1014 hPa 0,0 l/m 11,3 km/h (2 Bft)
21.08.2006 14:58 23,8 C 20,4 C 69 % 1014 hPa 0,0 l/m 15,0 km/h (3 Bft)
21.08.2006 15:01 23,8 C 20,1 C 66 % 1014 hPa 0,0 l/m 11,8 km/h (2 Bft)
21.08.2006 15:04 23,8 C 19,8 C 66 % 1014 hPa 0,0 l/m 11,6 km/h (2 Bft)
21.08.2006 15:07 23,8 C 19,9 C 66 % 1014 hPa 0,0 l/m 14,0 km/h (3 Bft)
21.08.2006 15:10 23,8 C 19,9 C 66 % 1014 hPa 0,0 l/m 14,8 km/h (3 Bft)
21.08.2006 15:13 23,8 C 19,7 C 65 % 1014 hPa 0,0 l/m 14,8 km/h (3 Bft)
21.08.2006 15:16 23,8 C 19,6 C 66 % 1014 hPa 0,0 l/m 8,1 km/h (2 Bft)
21.08.2006 15:19 23,8 C 19,4 C 66 % 1014 hPa 0,0 l/m 9,9 km/h (2 Bft)
21.08.2006 15:22 23,8 C 19,3 C 68 % 1014 hPa 0,0 l/m 0,0 km/h (0 Bft)
21.08.2006 15:25 23,8 C 19,4 C 68 % 1014 hPa 0,0 l/m 0,0 km/h (0 Bft)
21.08.2006 15:28 23,8 C 19,4 C 68 % 1014 hPa 0,0 l/m 0,1 km/h (0 Bft)
21.08.2006 15:31 23,9 C 19,4 C 69 % 1014 hPa 0,0 l/m 0,2 km/h (0 Bft)
21.08.2006 15:34 23,8 C 19,4 C 70 % 1014 hPa 0,0 l/m 2,5 km/h (1 Bft)
21.08.2006 15:37 23,8 C 19,6 C 69 % 1014 hPa 0,0 l/m 2,5 km/h (1 Bft)
21.08.2006 15:40 23,8 C 19,7 C 69 % 1014 hPa 0,0 l/m 0,0 km/h (0 Bft)
21.08.2006 15:43 23,8 C 19,7 C 68 % 1014 hPa 0,0 l/m 6,7 km/h (2 Bft)
21.08.2006 15:46 23,8 C 19,7 C 64 % 1014 hPa 0,0 l/m 8,1 km/h (2 Bft)
21.08.2006 15:49 23,8 C 19,7 C 65 % 1014 hPa 0,0 l/m 12,7 km/h (3 Bft)
21.08.2006 15:52 23,8 C 19,9 C 66 % 1014 hPa 0,0 l/m 12,6 km/h (3 Bft)
21.08.2006 15:55 23,8 C 20,1 C 66 % 1014 hPa 0,0 l/m 9,2 km/h (2 Bft)
21.08.2006 15:58 23,8 C 20,3 C 66 % 1014 hPa 0,0 l/m 13,8 km/h (3 Bft)
21.08.2006 16:01 23,8 C 20,3 C 66 % 1014 hPa 0,0 l/m 1,0 km/h (0 Bft)
21.08.2006 16:04 23,7 C 20,1 C 66 % 1014 hPa 0,0 l/m 5,8 km/h (2 Bft)
21.08.2006 16:07 23,8 C 19,8 C 65 % 1014 hPa 0,0 l/m 13,2 km/h (3 Bft)
21.08.2006 16:10 23,8 C 19,5 C 66 % 1014 hPa 0,0 l/m 15,4 km/h (3 Bft)
21.08.2006 16:13 23,8 C 19,2 C 67 % 1014 hPa 0,0 l/m 12,8 km/h (3 Bft)
21.08.2006 16:16 23,7 C 19,0 C 68 % 1014 hPa 0,0 l/m 9,8 km/h (2 Bft)
21.08.2006 16:19 23,8 C 19,0 C 68 % 1014 hPa 0,0 l/m 1,8 km/h (1 Bft)
21.08.2006 16:22 23,8 C 18,9 C 68 % 1014 hPa 0,0 l/m 7,9 km/h (2 Bft)
21.08.2006 16:25 23,8 C 18,8 C 69 % 1014 hPa 0,0 l/m 11,6 km/h (2 Bft)
21.08.2006 16:28 23,8 C 18,8 C 70 % 1014 hPa 0,0 l/m 6,0 km/h (2 Bft)
21.08.2006 16:31 23,8 C 18,7 C 70 % 1014 hPa 0,0 l/m 11,1 km/h (2 Bft)
21.08.2006 16:34 23,8 C 18,6 C 72 % 1014 hPa 0,0 l/m 21,1 km/h (4 Bft)
21.08.2006 16:37 23,8 C 18,6 C 72 % 1014 hPa 0,0 l/m 30,2 km/h (5 Bft)
21.08.2006 16:40 23,8 C 18,0 C 71 % 1014 hPa 0,0 l/m 26,1 km/h (4 Bft)
21.08.2006 16:43 23,8 C 17,6 C 74 % 1014 hPa 0,0 l/m 27,3 km/h (4 Bft)
21.08.2006 16:46 23,8 C 17,2 C 76 % 1014 hPa 0,0 l/m 22,8 km/h (4 Bft)
21.08.2006 16:49 23,8 C 17,2 C 76 % 1014 hPa 0,0 l/m 22,8 km/h (4 Bft)
21.08.2006 16:52 23,8 C 17,0 C 79 % 1014 hPa 0,0 l/m 10,0 km/h (2 Bft)
21.08.2006 16:55 23,7 C 17,0 C 78 % 1014 hPa 0,0 l/m 19,2 km/h (3 Bft)
21.08.2006 17:05 23,7 C 17,0 C 78 % 1014 hPa 0,0 l/m 19,2 km/h (3 Bft)
21.08.2006 17:08 23,7 C 17,0 C 79 % 1014 hPa 0,0 l/m 19,2 km/h (3 Bft)
21.08.2006 17:11 23,6 C 17,1 C 80 % 1014 hPa 0,0 l/m 19,2 km/h (3 Bft)
21.08.2006 17:14 23,4 C 17,3 C 80 % 1014 hPa 0,0 l/m 14,1 km/h (3 Bft)
21.08.2006 17:17 23,3 C 17,6 C 78 % 1014 hPa 0,0 l/m 14,1 km/h (3 Bft)
21.08.2006 17:20 23,2 C 17,8 C 78 % 1014 hPa 0,0 l/m 13,3 km/h (3 Bft)
21.08.2006 17:23 23,1 C 18,0 C 76 % 1014 hPa 0,0 l/m 16,9 km/h (3 Bft)
21.08.2006 17:26 23,1 C 18,0 C 76 % 1014 hPa 0,0 l/m 13,8 km/h (3 Bft)
21.08.2006 17:29 23,0 C 18,2 C 75 % 1014 hPa 0,0 l/m 17,5 km/h (3 Bft)
21.08.2006 17:32 23,0 C 18,3 C 75 % 1014 hPa 0,0 l/m 14,9 km/h (3 Bft)
21.08.2006 17:35 23,0 C 18,4 C 71 % 1014 hPa 0,0 l/m 17,0 km/h (3 Bft)
21.08.2006 17:38 22,9 C 18,3 C 72 % 1013 hPa 0,0 l/m 16,0 km/h (3 Bft)
21.08.2006 17:41 22,8 C 18,3 C 73 % 1013 hPa 0,0 l/m 13,1 km/h (3 Bft)
21.08.2006 17:44 22,8 C 18,2 C 72 % 1013 hPa 0,0 l/m 13,5 km/h (3 Bft)
21.08.2006 17:47 22,8 C 18,0 C 71 % 1013 hPa 0,0 l/m 14,4 km/h (3 Bft)
21.08.2006 17:50 22,8 C 18,0 C 72 % 1013 hPa 0,0 l/m 15,0 km/h (3 Bft)
21.08.2006 17:53 22,8 C 17,8 C 71 % 1013 hPa 0,0 l/m 12,8 km/h (3 Bft)
21.08.2006 17:56 22,7 C 17,8 C 72 % 1013 hPa 0,0 l/m 22,2 km/h (4 Bft)
21.08.2006 17:59 22,7 C 17,6 C 71 % 1013 hPa 0,0 l/m 21,1 km/h (4 Bft)
21.08.2006 18:02 22,7 C 17,6 C 72 % 1013 hPa 0,0 l/m 20,6 km/h (4 Bft)
21.08.2006 18:05 22,7 C 17,6 C 71 % 1013 hPa 0,0 l/m 20,1 km/h (4 Bft)
21.08.2006 18:08 22,7 C 17,6 C 72 % 1013 hPa 0,0 l/m 18,2 km/h (3 Bft)
21.08.2006 18:11 22,8 C 17,8 C 72 % 1013 hPa 0,0 l/m 18,1 km/h (3 Bft)
21.08.2006 18:14 22,8 C 17,9 C 72 % 1013 hPa 0,0 l/m 18,1 km/h (3 Bft)
21.08.2006 18:17 22,8 C 17,9 C 72 % 1013 hPa 0,0 l/m 22,4 km/h (4 Bft)
21.08.2006 18:20 22,8 C 17,9 C 74 % 1013 hPa 0,0 l/m 20,3 km/h (4 Bft)
21.08.2006 18:23 22,8 C 17,8 C 73 % 1013 hPa 0,0 l/m 21,7 km/h (4 Bft)
21.08.2006 18:26 22,8 C 17,6 C 73 % 1013 hPa 0,0 l/m 20,8 km/h (4 Bft)
21.08.2006 18:29 22,8 C 17,6 C 74 % 1013 hPa 0,0 l/m 17,9 km/h (3 Bft)
21.08.2006 18:32 22,9 C 17,6 C 73 % 1013 hPa 0,0 l/m 18,8 km/h (3 Bft)
21.08.2006 18:35 22,9 C 17,5 C 73 % 1013 hPa 0,0 l/m 15,5 km/h (3 Bft)
21.08.2006 18:38 22,9 C 17,5 C 73 % 1013 hPa 0,0 l/m 22,8 km/h (4 Bft)
21.08.2006 18:41 22,9 C 17,4 C 74 % 1013 hPa 0,0 l/m 23,6 km/h (4 Bft)
21.08.2006 18:44 22,8 C 17,3 C 74 % 1013 hPa 0,0 l/m 17,6 km/h (3 Bft)
21.08.2006 18:47 22,8 C 17,2 C 75 % 1013 hPa 0,0 l/m 18,5 km/h (3 Bft)
21.08.2006 18:50 22,8 C 17,2 C 75 % 1013 hPa 0,0 l/m 17,1 km/h (3 Bft)
21.08.2006 18:53 22,8 C 17,1 C 76 % 1013 hPa 0,0 l/m 15,1 km/h (3 Bft)
21.08.2006 18:56 22,6 C 17,0 C 76 % 1013 hPa 0,0 l/m 17,1 km/h (3 Bft)
21.08.2006 18:59 22,6 C 17,0 C 76 % 1013 hPa 0,0 l/m 16,6 km/h (3 Bft)
21.08.2006 19:02 22,5 C 17,0 C 77 % 1013 hPa 0,0 l/m 13,7 km/h (3 Bft)
21.08.2006 19:05 22,4 C 17,0 C 77 % 1013 hPa 0,0 l/m 13,8 km/h (3 Bft)
21.08.2006 19:08 22,4 C 17,0 C 77 % 1013 hPa 0,0 l/m 12,3 km/h (3 Bft)
21.08.2006 19:11 22,4 C 17,0 C 77 % 1013 hPa 0,0 l/m 20,0 km/h (4 Bft)
21.08.2006 19:14 22,5 C 16,8 C 77 % 1013 hPa 0,0 l/m 11,9 km/h (2 Bft)
21.08.2006 19:17 22,5 C 16,8 C 77 % 1013 hPa 0,0 l/m 17,7 km/h (3 Bft)
21.08.2006 19:20 22,6 C 16,9 C 77 % 1013 hPa 0,0 l/m 13,3 km/h (3 Bft)
21.08.2006 19:23 22,6 C 16,9 C 78 % 1013 hPa 0,0 l/m 14,1 km/h (3 Bft)
21.08.2006 19:26 22,6 C 16,9 C 77 % 1013 hPa 0,0 l/m 13,1 km/h (3 Bft)
21.08.2006 19:29 22,6 C 16,9 C 77 % 1013 hPa 0,0 l/m 15,7 km/h (3 Bft)
21.08.2006 19:32 22,6 C 16,9 C 78 % 1013 hPa 0,0 l/m 15,7 km/h (3 Bft)
21.08.2006 19:35 22,5 C 16,8 C 78 % 1013 hPa 0,0 l/m 16,6 km/h (3 Bft)
21.08.2006 19:38 22,5 C 16,8 C 78 % 1013 hPa 0,0 l/m 13,6 km/h (3 Bft)
21.08.2006 19:41 22,5 C 16,7 C 78 % 1013 hPa 0,0 l/m 10,5 km/h (2 Bft)
21.08.2006 19:44 22,5 C 16,7 C 78 % 1013 hPa 0,0 l/m 8,9 km/h (2 Bft)
21.08.2006 19:47 22,4 C 16,6 C 79 % 1013 hPa 0,0 l/m 11,1 km/h (2 Bft)
21.08.2006 19:50 22,4 C 16,6 C 79 % 1013 hPa 0,0 l/m 11,5 km/h (2 Bft)
21.08.2006 19:53 22,4 C 16,6 C 79 % 1013 hPa 0,0 l/m 8,2 km/h (2 Bft)
21.08.2006 19:56 22,4 C 16,6 C 79 % 1013 hPa 0,0 l/m 6,2 km/h (2 Bft)
21.08.2006 19:59 22,4 C 16,5 C 79 % 1013 hPa 0,0 l/m 5,2 km/h (1 Bft)
21.08.2006 20:02 22,3 C 16,5 C 79 % 1013 hPa 0,0 l/m 8,5 km/h (2 Bft)
21.08.2006 20:05 22,3 C 16,5 C 79 % 1013 hPa 0,0 l/m 6,1 km/h (2 Bft)
21.08.2006 20:08 22,3 C 16,6 C 79 % 1013 hPa 0,0 l/m 6,1 km/h (2 Bft)
21.08.2006 20:11 22,2 C 16,5 C 79 % 1013 hPa 0,0 l/m 6,8 km/h (2 Bft)
21.08.2006 20:14 22,2 C 16,5 C 79 % 1013 hPa 0,0 l/m 7,4 km/h (2 Bft)
21.08.2006 20:17 22,2 C 16,5 C 79 % 1013 hPa 0,0 l/m 3,5 km/h (1 Bft)
21.08.2006 20:20 22,2 C 16,4 C 80 % 1013 hPa 0,0 l/m 7,1 km/h (2 Bft)
21.08.2006 20:23 22,1 C 16,4 C 80 % 1014 hPa 0,0 l/m 4,3 km/h (1 Bft)
21.08.2006 20:26 22,1 C 16,3 C 81 % 1014 hPa 0,0 l/m 1,7 km/h (1 Bft)
21.08.2006 20:29 22,1 C 16,3 C 81 % 1014 hPa 0,0 l/m 1,7 km/h (1 Bft)
21.08.2006 20:32 22,0 C 16,1 C 82 % 1014 hPa 0,0 l/m 9,2 km/h (2 Bft)
21.08.2006 20:35 22,0 C 16,0 C 81 % 1014 hPa 0,0 l/m 10,7 km/h (2 Bft)
21.08.2006 20:38 22,0 C 16,0 C 81 % 1014 hPa 0,0 l/m 10,9 km/h (2 Bft)
21.08.2006 20:41 22,0 C 16,0 C 81 % 1014 hPa 0,0 l/m 13,0 km/h (3 Bft)
21.08.2006 20:44 22,0 C 16,0 C 76 % 1014 hPa 0,0 l/m 16,8 km/h (3 Bft)
21.08.2006 20:47 22,0 C 16,0 C 75 % 1013 hPa 0,0 l/m 17,6 km/h (3 Bft)
21.08.2006 20:50 22,0 C 16,2 C 72 % 1013 hPa 0,0 l/m 20,6 km/h (4 Bft)
21.08.2006 20:53 22,1 C 16,3 C 72 % 1014 hPa 0,0 l/m 18,6 km/h (3 Bft)
21.08.2006 20:56 22,0 C 16,3 C 72 % 1014 hPa 0,0 l/m 16,7 km/h (3 Bft)
21.08.2006 20:59 22,0 C 16,3 C 71 % 1013 hPa 0,0 l/m 16,3 km/h (3 Bft)
21.08.2006 21:02 22,0 C 16,4 C 72 % 1013 hPa 0,0 l/m 17,5 km/h (3 Bft)
21.08.2006 21:05 22,0 C 16,4 C 71 % 1013 hPa 0,0 l/m 17,9 km/h (3 Bft)
21.08.2006 21:08 22,0 C 16,4 C 72 % 1013 hPa 0,0 l/m 13,6 km/h (3 Bft)
21.08.2006 21:11 22,0 C 16,3 C 73 % 1013 hPa 0,0 l/m 13,3 km/h (3 Bft)
21.08.2006 21:14 22,0 C 16,3 C 73 % 1013 hPa 0,0 l/m 12,8 km/h (3 Bft)
21.08.2006 21:17 21,9 C 16,2 C 74 % 1013 hPa 0,0 l/m 10,3 km/h (2 Bft)
21.08.2006 21:20 21,9 C 16,2 C 74 % 1013 hPa 0,0 l/m 11,3 km/h (2 Bft)
21.08.2006 21:23 21,9 C 16,1 C 74 % 1013 hPa 0,0 l/m 12,3 km/h (3 Bft)
21.08.2006 21:26 21,8 C 16,0 C 74 % 1013 hPa 0,0 l/m 15,8 km/h (3 Bft)
21.08.2006 21:29 21,8 C 16,0 C 74 % 1013 hPa 0,0 l/m 17,0 km/h (3 Bft)
21.08.2006 21:32 21,8 C 16,0 C 74 % 1013 hPa 0,0 l/m 12,3 km/h (3 Bft)
21.08.2006 21:35 21,8 C 16,0 C 74 % 1013 hPa 0,0 l/m 12,0 km/h (2 Bft)
21.08.2006 21:38 21,8 C 16,0 C 74 % 1013 hPa 0,0 l/m 12,0 km/h (2 Bft)
21.08.2006 21:41 21,8 C 16,0 C 74 % 1013 hPa 0,0 l/m 12,1 km/h (2 Bft)
21.08.2006 21:44 21,8 C 15,9 C 74 % 1013 hPa 0,0 l/m 9,9 km/h (2 Bft)
21.08.2006 21:47 21,7 C 15,9 C 74 % 1013 hPa 0,0 l/m 14,8 km/h (3 Bft)
21.08.2006 21:50 21,7 C 15,8 C 74 % 1013 hPa 0,0 l/m 10,5 km/h (2 Bft)
21.08.2006 21:53 21,7 C 15,8 C 74 % 1013 hPa 0,0 l/m 14,0 km/h (3 Bft)
21.08.2006 21:56 21,7 C 15,8 C 74 % 1013 hPa 0,0 l/m 14,1 km/h (3 Bft)
21.08.2006 21:59 21,7 C 15,8 C 74 % 1013 hPa 0,0 l/m 9,2 km/h (2 Bft)
21.08.2006 22:02 21,7 C 15,8 C 74 % 1013 hPa 0,0 l/m 13,3 km/h (3 Bft)
21.08.2006 22:05 21,7 C 15,8 C 74 % 1013 hPa 0,0 l/m 11,6 km/h (2 Bft)
21.08.2006 22:08 21,6 C 15,8 C 74 % 1013 hPa 0,0 l/m 9,0 km/h (2 Bft)
21.08.2006 22:11 21,6 C 15,8 C 74 % 1013 hPa 0,0 l/m 10,3 km/h (2 Bft)
21.08.2006 22:14 21,6 C 15,8 C 74 % 1013 hPa 0,0 l/m 8,8 km/h (2 Bft)
21.08.2006 22:17 21,7 C 15,8 C 74 % 1013 hPa 0,0 l/m 14,6 km/h (3 Bft)
21.08.2006 22:21 21,7 C 15,8 C 74 % 1013 hPa 0,0 l/m 11,0 km/h (2 Bft)
21.08.2006 22:23 21,8 C 15,8 C 74 % 1013 hPa 0,0 l/m 10,1 km/h (2 Bft)
21.08.2006 22:26 21,9 C 15,8 C 74 % 1013 hPa 0,0 l/m 11,0 km/h (2 Bft)
21.08.2006 22:29 22,0 C 15,8 C 74 % 1013 hPa 0,0 l/m 9,5 km/h (2 Bft)
21.08.2006 22:32 22,1 C 15,7 C 74 % 1013 hPa 0,0 l/m 10,8 km/h (2 Bft)
21.08.2006 22:35 22,2 C 15,6 C 75 % 1013 hPa 0,0 l/m 8,9 km/h (2 Bft)
21.08.2006 22:38 22,2 C 15,6 C 75 % 1014 hPa 0,0 l/m 9,5 km/h (2 Bft)
21.08.2006 22:41 22,2 C 15,6 C 74 % 1013 hPa 0,0 l/m 11,2 km/h (2 Bft)
21.08.2006 22:44 22,3 C 15,6 C 75 % 1013 hPa 0,0 l/m 12,4 km/h (3 Bft)
21.08.2006 22:47 22,3 C 15,6 C 75 % 1013 hPa 0,0 l/m 13,5 km/h (3 Bft)
21.08.2006 22:50 22,3 C 15,6 C 75 % 1013 hPa 0,0 l/m 14,8 km/h (3 Bft)
21.08.2006 22:53 22,4 C 15,5 C 75 % 1013 hPa 0,0 l/m 11,6 km/h (2 Bft)
21.08.2006 22:56 22,3 C 15,5 C 75 % 1013 hPa 0,0 l/m 9,0 km/h (2 Bft)
21.08.2006 22:59 22,4 C 15,5 C 75 % 1013 hPa 0,0 l/m 12,5 km/h (3 Bft)
21.08.2006 23:02 22,4 C 15,5 C 75 % 1013 hPa 0,0 l/m 12,5 km/h (3 Bft)
21.08.2006 23:05 22,4 C 15,4 C 76 % 1013 hPa 0,0 l/m 18,4 km/h (3 Bft)
21.08.2006 23:08 22,4 C 15,4 C 76 % 1013 hPa 0,0 l/m 14,5 km/h (3 Bft)
21.08.2006 23:11 22,4 C 15,4 C 76 % 1013 hPa 0,0 l/m 12,7 km/h (3 Bft)
21.08.2006 23:14 22,4 C 15,3 C 77 % 1013 hPa 0,0 l/m 12,7 km/h (3 Bft)
21.08.2006 23:17 22,4 C 15,3 C 77 % 1013 hPa 0,0 l/m 11,0 km/h (2 Bft)
21.08.2006 23:20 22,4 C 15,3 C 77 % 1013 hPa 0,0 l/m 9,8 km/h (2 Bft)
21.08.2006 23:23 22,4 C 15,3 C 77 % 1013 hPa 0,0 l/m 8,9 km/h (2 Bft)
21.08.2006 23:26 22,4 C 15,3 C 78 % 1013 hPa 0,0 l/m 10,0 km/h (2 Bft)
21.08.2006 23:29 22,4 C 15,3 C 78 % 1013 hPa 0,0 l/m 6,7 km/h (2 Bft)
21.08.2006 23:32 22,4 C 15,3 C 78 % 1013 hPa 0,0 l/m 3,9 km/h (1 Bft)
21.08.2006 23:35 22,4 C 15,2 C 78 % 1013 hPa 0,0 l/m 5,3 km/h (1 Bft)
21.08.2006 23:38 22,4 C 15,2 C 78 % 1013 hPa 0,0 l/m 5,5 km/h (1 Bft)
21.08.2006 23:41 22,4 C 15,1 C 79 % 1013 hPa 0,0 l/m 5,8 km/h (2 Bft)
21.08.2006 23:44 22,4 C 15,1 C 79 % 1013 hPa 0,0 l/m 6,7 km/h (2 Bft)
21.08.2006 23:47 22,4 C 15,0 C 79 % 1013 hPa 0,0 l/m 4,2 km/h (1 Bft)
21.08.2006 23:50 22,4 C 15,0 C 79 % 1013 hPa 0,0 l/m 4,8 km/h (1 Bft)
21.08.2006 23:53 22,4 C 15,0 C 79 % 1013 hPa 0,0 l/m 5,8 km/h (2 Bft)
21.08.2006 23:56 22,5 C 15,0 C 79 % 1013 hPa 0,0 l/m 2,7 km/h (1 Bft)
21.08.2006 23:59 22,5 C 15,0 C 79 % 1013 hPa 0,0 l/m 4,1 km/h (1 Bft)
_ Min-Zeit 22:08 06:19 13:16 17:38 - 00:31
Minimum _ 21,6 C 12,5 C 64 % 1013 hPa - 0,0 km/h (0 Bft)
_ Max-Zeit 15:31 14:55 07:28 02:04 13:46 16:37
Maximum _ 23,9 C 20,6 C 90 % 1017 hPa 0,3 l/m 30,2 km/h
W-SW (5 Bft)
Durchschnitt _ 23,1 C 16,3 C 78 % 1015 hPa #0,3 l/m 7,6 km/h (2 Bft)